FW1577 Weather Reports


Display with metric or nautical units.
time (UTC)temp
F
wind
direction
speed
MPH
gust
MPH
rain 1hr
in
rain 24hr
in
rain mn
in
humidity
%
barometer
mb
20260831094521 52 285 0.0 3.0 0.00 0.00 0.00 85 993.7
20260831093021 53 174 0.0 4.0 0.00 0.00 0.00 83 993.8
20260831091520 54 90 2.0 6.0 0.00 0.00 0.00 82 993.8
20260831090020 54 138 2.0 4.0 0.00 0.00 0.00 83 993.8
20260831084519 54 131 0.0 2.0 0.00 0.00 0.00 84 993.8
20260831083035 55 117 0.0 2.0 0.00 0.00 0.00 83 993.8
20260831081518 56 110 0.0 2.0 0.00 0.00 0.00 82 993.8
20260831080017 58 99 2.0 3.0 0.00 0.00 0.00 78 993.7
20260831074517 59 95 1.0 3.0 0.00 0.00 0.00 75 993.7
20260831073017 60 96 1.0 2.0 0.00 0.00 0.00 75 993.6
20260831071514 61 101 1.0 2.0 0.00 0.00 0.00 73 993.6
20260831070024 63 101 0.0 1.0 0.00 0.00 0.00 69 993.6
20260831064513 64 100 1.0 2.0 0.00 0.00 0.00 66 993.7
20260831063011 64 96 1.0 2.0 0.00 0.00 0.00 59 993.8
20260831061510 65 102 1.0 5.0 0.00 0.00 0.00 53 993.9
20260831060009 65 116 1.0 2.0 0.00 0.00 0.00 56 993.9
20260831054507 66 96 1.0 3.0 0.00 0.00 0.00 51 994.0
20260831053005 65 94 1.0 4.0 0.00 0.00 0.00 52 994.1
20260831051501 65 109 1.0 4.0 0.00 0.00 0.00 58 994.3
20260831050059 65 108 2.0 5.0 0.00 0.00 0.00 55 994.5
20260831044604 65 90 2.0 7.0 0.00 0.00 0.00 56 994.8
20260831043054 65 127 2.0 5.0 0.00 0.00 0.00 61 995.0
20260831041643 65 76 1.0 4.0 0.00 0.00 0.00 61 995.1
20260831040050 65 81 0.0 0.0 0.00 0.00 0.00 68 995.1
20260831034547 65 316 0.0 0.0 0.00 0.00 0.00 56 995.3
20260831033044 64 300 0.0 0.0 0.00 0.00 0.00 59 995.5
20260831031541 64 105 0.0 0.0 0.00 0.00 0.00 68 995.7
20260831030040 63 139 0.0 0.0 0.00 0.00 0.00 64 995.9
20260831024542 62 307 0.0 0.0 0.00 0.00 0.00 65 996.1
20260831023033 62 117 0.0 4.0 0.00 0.00 0.00 69 996.4
20260831021537 61 318 0.0 3.0 0.00 0.00 0.00 70 996.6
20260831020026 60 299 0.0 4.0 0.00 0.00 0.00 72 996.8
20260831014523 59 255 0.0 4.0 0.00 0.00 0.00 71 997.0
20260831013020 58 295 0.0 1.0 0.00 0.00 0.00 75 997.1
20260831011531 56 245 1.0 3.0 0.00 0.00 0.00 73 997.3
20260831010013 55 262 0.0 3.0 0.00 0.00 0.00 76 997.5
20260831004509 54 302 1.0 3.0 0.00 0.00 0.00 78 997.6
20260831003007 53 303 0.0 3.0 0.00 0.00 0.00 81 997.6
20260831001503 53 308 0.0 0.0 0.00 0.00 0.00 83 997.8
20260831000113 51 311 0.0 2.0 0.00 0.00 0.00 85 997.8
20260830234556 50 323 0.0 0.0 0.00 0.00 0.00 86 997.8
20260830233052 49 323 0.0 0.0 0.00 0.00 0.00 86 998.0
20260830231556 48 107 0.0 1.0 0.00 0.00 0.00 85 998.0
20260830230054 48 108 0.0 1.0 0.00 0.00 0.00 87 998.1
20260830224545 46 120 1.0 2.0 0.00 0.00 0.00 86 998.2
20260830223106 45 126 1.0 3.0 0.00 0.00 0.00 89 998.1
20260830221539 43 96 1.0 2.0 0.00 0.00 0.00 91 998.2
20260830220036 41 227 0.0 0.0 0.00 0.00 0.00 97 998.2
20260830214536 39 227 0.0 0.0 0.00 0.00 0.00 95 998.1
20260830213037 39 243 0.0 3.0 0.00 0.00 0.00 94 998.0
20260830211534 39 108 0.0 3.0 0.00 0.00 0.00 95 997.9
20260830210033 39 103 1.0 2.0 0.00 0.00 0.00 95 997.7
20260830204532 39 124 0.0 4.0 0.00 0.00 0.00 94 997.7
20260830203034 39 184 0.0 3.0 0.00 0.00 0.00 94 997.6
20260830201528 40 120 0.0 1.0 0.00 0.00 0.00 94 997.6
20260830200028 40 91 2.0 4.0 0.00 0.00 0.00 94 997.5
20260830194525 40 114 0.0 4.0 0.00 0.00 0.00 95 997.6
20260830193025 40 127 1.0 3.0 0.00 0.00 0.00 95 997.4
20260830191522 40 97 2.0 4.0 0.00 0.00 0.00 95 997.3
20260830190027 40 95 2.0 5.0 0.00 0.00 0.00 95 997.3
20260830184526 41 115 0.0 2.0 0.00 0.01 0.00 96 997.3
20260830183023 40 108 0.0 0.0 0.00 0.01 0.00 94 997.4
20260830181518 41 99 2.0 3.0 0.00 0.01 0.00 96 997.5
20260830180018 41 82 3.0 5.0 0.00 0.01 0.00 97 997.5
20260830174516 40 120 0.0 1.0 0.00 0.01 0.00 96 997.5
20260830173015 40 120 0.0 1.0 0.00 0.01 0.00 95 997.5
20260830171513 40 149 0.0 0.0 0.00 0.01 0.00 94 997.5
20260830170012 41 148 0.0 0.0 0.00 0.01 0.00 94 997.6
20260830164509 42 169 0.0 3.0 0.00 0.01 0.00 93 997.7
20260830163006 42 98 2.0 3.0 0.00 0.01 0.00 92 997.8
20260830161505 43 99 2.0 4.0 0.00 0.01 0.00 92 997.8
20260830160005 43 110 1.0 4.0 0.00 0.01 0.00 92 997.9
20260830154503 43 112 2.0 5.0 0.00 0.01 0.00 93 997.9
20260830153101 43 94 3.0 5.0 0.00 0.01 0.00 91 997.9
20260830151609 42 94 1.0 3.0 0.00 0.01 0.00 94 998.0
20260830144555 43 98 0.0 2.0 0.00 0.01 0.00 93 998.0
20260830143055 43 98 2.0 3.0 0.00 0.01 0.00 94 998.0
20260830141549 43 105 1.0 3.0 0.00 0.01 0.00 95 998.2
20260830140047 42 113 0.0 1.0 0.00 0.01 0.00 95 998.2
20260830134547 42 114 0.0 0.0 0.00 0.01 0.01 94 998.3
20260830133049 43 115 0.0 0.0 0.00 0.01 0.01 94 998.3
20260830131550 43 114 0.0 1.0 0.00 0.01 0.01 94 998.4
20260830130055 43 110 0.0 2.0 0.00 0.01 0.01 94 998.4
20260830124543 43 148 0.0 0.0 0.00 0.01 0.01 93 998.4
20260830123043 44 148 0.0 3.0 0.00 0.01 0.01 93 998.4
20260830121541 43 85 1.0 3.0 0.00 0.01 0.01 94 998.4
20260830120046 44 99 0.0 2.0 0.00 0.01 0.01 93 998.5
20260830114542 44 99 0.0 1.0 0.00 0.01 0.01 93 998.4
20260830113041 45 99 0.0 1.0 0.00 0.01 0.01 91 998.2
20260830111539 45 112 0.0 1.0 0.00 0.01 0.01 93 998.2
20260830110050 45 186 0.0 3.0 0.00 0.01 0.01 93 998.2
20260830104543 45 113 0.0 0.0 0.00 0.01 0.01 92 998.1
20260830103038 46 115 0.0 1.0 0.00 0.01 0.01 94 998.1
20260830101538 46 113 0.0 1.0 0.00 0.01 0.01 93 998.0
20260830100048 46 92 0.0 0.0 0.00 0.01 0.01 91 997.9